Great Falls, MT

4:59 AM MST on February 10, 2016 (GMT -0700)
Malmstrom AFB

Weather History for KGFA - February, 2013

Change the Weather History Date:

Wednesday, February 6, 2013

  Actual Average (KGTF) Record (KGTF)
Temperature  
Mean Temperature 36 °F 26 °F  
Max Temperature 45 °F 37 °F 65 °F (2015)
Min Temperature 27 °F 16 °F -34 °F (2014)
Degree Days  
Heating Degree Days 29 39  
Month to date heating degree days 234  
Since 1 July heating degree days 4685  
Cooling Degree Days 0 0  
Month to date cooling degree days 0  
Year to date cooling degree days 0  
Moisture  
Dew Point 19 °F    
Average Humidity 51    
Maximum Humidity 75    
Minimum Humidity 31    
Precipitation  
Precipitation 0.00 in 0.01 in 0.24 in (1933)
Month to date precipitation 0.09  
Year to date precipitation 0.60  
Snow  
Snow 0.00 in 0.30 in 5.80 in (1986)
Month to date snowfall 1.7  
Since 1 July snowfall 33.5  
Snow Depth -    
Sea Level Pressure  
Sea Level Pressure 29.99 in    
Wind  
Wind Speed 14 mph (SSW)    
Max Wind Speed 24 mph    
Max Gust Speed 33 mph    
Visibility 10 miles    
Events      
T = Trace of Precipitation, MM = Missing Value Source: NWS Daily Summary

Daily Weather History Graph

Daily Weather History Graph

Search for Another Location

Airport or City:

Trip Planner

Search our weather history database for the weather conditions in past years. The results will help you decide how hot, cold, wet, or windy it might be!

Date:

Astronomy

Feb. 06, 2013 Rise Set
Actual Time 7:43 AM MST 5:34 PM MST
Civil Twilight 7:11 AM MST 6:07 PM MST
Nautical Twilight 6:34 AM MST 6:43 PM MST
Astronomical Twilight 5:59 AM MST 7:19 PM MST
Moon 4:39 AM MST (2/6) 1:48 PM MST (2/6)
Length of Visible Light 10h 55m
Length of Day
9h 51m
Waning Crescent, 16% of the Moon is Illuminated
Feb 6
Waning Crescent
Feb 10
New
Feb 17
First Quarter
Feb 25
Full
Mar 4
Last Quarter

Hourly Weather History & Observations

Time (MST) Temp. Windchill Dew Point Humidity Pressure Visibility Wind Dir Wind Speed Gust Speed Precip Events Conditions
12:56 AM 37.0 °F 32.4 °F 21.9 °F 54% 29.84 in 10.0 mi SW 5.8 mph - N/A   Clear
2:56 AM 27.0 °F 17.3 °F 19.9 °F 75% 29.88 in 10.0 mi South 10.4 mph - N/A   Clear
3:56 AM 32.0 °F 24.2 °F 19.0 °F 59% 29.88 in 10.0 mi SW 9.2 mph - N/A   Clear
4:56 AM 30.9 °F 22.8 °F 19.9 °F 64% 29.91 in 10.0 mi South 9.2 mph - N/A   Clear
5:56 AM 34.0 °F 23.4 °F 19.9 °F 56% 29.92 in 10.0 mi SSW 17.3 mph - N/A   Clear
6:56 AM 32.0 °F 20.8 °F 19.9 °F 61% 29.93 in 10.0 mi SSW 17.3 mph - N/A   Clear
7:56 AM 33.1 °F 23.4 °F 19.9 °F 59% 29.94 in 10.0 mi South 13.8 mph - N/A   Clear
8:56 AM 36.0 °F 25.6 °F 21.0 °F 55% 29.95 in 10.0 mi SSW 18.4 mph - N/A   Clear
9:56 AM 41.0 °F 31.1 °F 21.0 °F 45% 29.96 in 10.0 mi SSW 23.0 mph 33.4 mph N/A   Clear
10:56 AM 42.1 °F 33.6 °F 19.9 °F 41% 29.97 in 10.0 mi SW 18.4 mph 29.9 mph N/A   Clear
11:56 AM 43.0 °F 34.0 °F 18.0 °F 37% 29.97 in 10.0 mi SW 21.9 mph 33.4 mph N/A   Clear
12:56 PM 45.0 °F 36.4 °F 19.0 °F 36% 29.96 in 10.0 mi SW 23.0 mph 28.8 mph N/A   Clear
1:56 PM 43.0 °F 33.5 °F 19.0 °F 38% 29.97 in 10.0 mi SSW 24.2 mph 31.1 mph N/A   Clear
2:56 PM 45.0 °F 37.6 °F 16.0 °F 31% 29.99 in 10.0 mi WSW 17.3 mph 28.8 mph N/A   Clear
3:56 PM 45.0 °F 36.2 °F 17.1 °F 33% 29.99 in 10.0 mi SW 24.2 mph 29.9 mph N/A   Clear
4:56 PM 43.0 °F 34.5 °F 18.0 °F 37% 30.03 in 10.0 mi SSW 19.6 mph 26.5 mph N/A   Clear
5:56 PM 39.9 °F 31.8 °F 19.0 °F 43% 30.06 in 10.0 mi SSW 15.0 mph - N/A   Clear
6:56 PM 32.0 °F 22.5 °F 21.0 °F 64% 30.11 in 10.0 mi SSW 12.7 mph - N/A   Clear
7:56 PM 30.9 °F 21.2 °F 19.9 °F 64% 30.12 in 10.0 mi SSW 12.7 mph - N/A   Clear
8:56 PM 35.1 °F 25.2 °F 19.0 °F 52% 30.11 in 10.0 mi SSW 16.1 mph - N/A   Clear
10:56 PM 30.0 °F 20.5 °F 18.0 °F 61% 30.13 in 10.0 mi SSW 11.5 mph - N/A   Clear
11:56 PM 30.0 °F 20.5 °F 18.0 °F 61% 30.13 in 10.0 mi South 11.5 mph - N/A   Clear